Погода в Марьянской

Россия / Краснодарский край     45°06′10″N   38°38′15″E
темп.,
°C
ветер,
м/с
пор.,
м/с
влажн.,
%
обл.,
%
осадки,
мм/ч
давл.,
гПа
погр.,
м
13 июня, вс
вс1300:00+16з228529 0.0 101320
03:00+15юз11874 0.0 101311
06:00+16ю22847 0.0 101375
09:00+22ююз116049 0.0 1013472
12:00+25зюз224463 0.0 10121360
15:00+27зсз334316 0.0 10111909
18:00+23зсз237093 0.3 101292
21:00+18з22820 0.3 101230
14 июня, пн
пн1400:00+16юз11885 0.0 101213
03:00+15юв1188100 0.0 101211
06:00+16вюв1284100 0.0 101270
09:00+22в3471100 0.0 1011566
12:00+26в345695 0.0 10111365
15:00+28в4450100 0.0 10091910
18:00+26св5862100 0.0 1009433
21:00+21св498397 0.1 1008187
15 июня, вт
вт1500:00+20всв41080100 0.0 1007251
03:00+18вюв3792100 1.8 1007168
06:00+18вюв3895100 2.3 1008300
09:00+22юв4679100 4.0 1009609
12:00+26ююз67555 0.5 10091644
15:00+27юз45521 0.5 10091608
18:00+25з44610 0.0 1009556
21:00+19з23760 0.0 101032
16 июня, ср
ср1600:00+17зсз228680 0.0 100932
03:00+16зсз239483 0.3 101050
06:00+17з2695100 0.7 1011311
09:00+17с1291100 0.8 1012152
12:00+23в126471 0.0 10121163
15:00+24всв226061 0.7 10111334
18:00+23всв33664 0.4 1011676
21:00+19всв23810 0.5 101235
17 июня, чт
чт1700:00+17всв22870 0.0 101231
03:00+16всв36913 0.0 1011122
06:00+17св259291 0.1 1011151
09:00+19ссв3589100 1.5 1011449
12:00+20с2483100 4.3 1012606
15:00+20з2288100 5.6 1013157
18:00+18з369540 0.4 1014195
21:00+17з23940 0.4 101547